Time,TemperatureF,DewpointF,PressureIn,WindDirection,WindDirectionDegrees,WindSpeedMPH,WindSpeedGustMPH,Humidity,HourlyPrecipIn,Conditions,Clouds,dailyrainin,SoftwareType,DateUTC
2013-01-11 00:07:00,37.7,31.0,30.18,SSW,212,0.0,0.0,78,0.00,,,0.00,weatherlink.com 1.10,2013-01-11 08:07:00,
2013-01-11 00:22:00,37.2,32.0,30.18,SSW,198,0.0,1.0,80,0.00,,,0.00,weatherlink.com 1.10,2013-01-11 08:22:00,
2013-01-11 00:37:00,37.4,32.0,30.18,SSW,198,0.0,0.0,81,0.00,,,0.00,weatherlink.com 1.10,2013-01-11 08:37:00,
2013-01-11 00:52:00,36.8,32.0,30.18,SSW,197,0.0,0.0,82,0.00,,,0.00,weatherlink.com 1.10,2013-01-11 08:52:00,
2013-01-11 01:07:00,37.7,32.0,30.18,WSW,243,0.0,1.0,81,0.00,,,0.00,weatherlink.com 1.10,2013-01-11 09:07:00,
2013-01-11 01:22:00,39.5,33.0,30.18,WSW,245,0.0,2.0,78,0.00,,,0.00,weatherlink.com 1.10,2013-01-11 09:22:00,
2013-01-11 01:37:00,40.0,33.0,30.18,NNW,339,0.0,0.0,76,0.00,,,0.00,weatherlink.com 1.10,2013-01-11 09:37:00,
2013-01-11 01:52:00,39.5,33.0,30.18,NNW,338,0.0,0.0,77,0.00,,,0.00,weatherlink.com 1.10,2013-01-11 09:52:00,
2013-01-11 02:07:00,38.1,32.0,30.18,NNW,339,0.0,0.0,79,0.00,,,0.00,weatherlink.com 1.10,2013-01-11 10:07:00,
2013-01-11 02:22:00,38.3,32.0,30.18,WSW,250,0.0,2.0,79,0.00,,,0.00,weatherlink.com 1.10,2013-01-11 10:22:00,
2013-01-11 02:37:00,39.1,32.0,30.18,WNW,290,0.0,2.0,77,0.00,,,0.00,weatherlink.com 1.10,2013-01-11 10:37:00,
2013-01-11 02:52:00,38.6,32.0,30.19,East,86,0.0,1.0,78,0.00,,,0.00,weatherlink.com 1.10,2013-01-11 10:52:00,
2013-01-11 03:07:00,37.1,31.0,30.19,East,86,0.0,0.0,80,0.00,,,0.00,weatherlink.com 1.10,2013-01-11 11:07:00,
2013-01-11 03:22:00,35.8,31.0,30.19,East,86,0.0,0.0,83,0.00,,,0.00,weatherlink.com 1.10,2013-01-11 11:22:00,
2013-01-11 03:37:00,36.4,32.0,30.19,SSE,162,0.0,1.0,84,0.00,,,0.00,weatherlink.com 1.10,2013-01-11 11:37:00,
2013-01-11 03:52:00,36.4,32.0,30.19,ESE,115,0.0,0.0,83,0.00,,,0.00,weatherlink.com 1.10,2013-01-11 11:52:00,
2013-01-11 04:07:00,36.5,32.0,30.19,ESE,116,0.0,0.0,83,0.00,,,0.00,weatherlink.com 1.10,2013-01-11 12:07:00,
2013-01-11 04:22:00,36.5,32.0,30.19,ESE,115,0.0,0.0,83,0.00,,,0.00,weatherlink.com 1.10,2013-01-11 12:22:00,
2013-01-11 04:37:00,36.3,31.0,30.19,ESE,117,0.0,0.0,82,0.00,,,0.00,weatherlink.com 1.10,2013-01-11 12:37:00,
2013-01-11 04:52:00,36.6,32.0,30.19,SSW,203,0.0,1.0,82,0.00,,,0.00,weatherlink.com 1.10,2013-01-11 12:52:00,
2013-01-11 05:07:00,37.5,32.0,30.20,SW,226,0.0,1.0,80,0.00,,,0.00,weatherlink.com 1.10,2013-01-11 13:07:00,
2013-01-11 05:22:00,37.6,32.0,30.20,WNW,285,1.0,1.0,79,0.00,,,0.00,weatherlink.com 1.10,2013-01-11 13:22:00,
2013-01-11 05:37:00,38.5,31.0,30.20,WSW,238,0.0,2.0,75,0.00,,,0.00,weatherlink.com 1.10,2013-01-11 13:37:00,
2013-01-11 05:52:00,38.4,31.0,30.21,SW,232,0.0,1.0,75,0.00,,,0.00,weatherlink.com 1.10,2013-01-11 13:52:00,
2013-01-11 06:07:00,38.5,31.0,30.21,ENE,72,0.0,1.0,75,0.00,,,0.00,weatherlink.com 1.10,2013-01-11 14:07:00,
2013-01-11 06:22:00,38.7,31.0,30.21,WNW,282,0.0,1.0,75,0.00,,,0.00,weatherlink.com 1.10,2013-01-11 14:22:00,
2013-01-11 06:37:00,38.7,31.0,30.21,WSW,255,0.0,1.0,74,0.00,,,0.00,weatherlink.com 1.10,2013-01-11 14:37:00,
2013-01-11 06:52:00,38.9,31.0,30.22,WSW,242,0.0,1.0,74,0.00,,,0.00,weatherlink.com 1.10,2013-01-11 14:52:00,
2013-01-11 07:07:00,38.0,31.0,30.22,WSW,242,0.0,0.0,75,0.00,,,0.00,weatherlink.com 1.10,2013-01-11 15:07:00,
2013-01-11 07:22:00,36.7,31.0,30.23,South,188,0.0,0.0,79,0.00,,,0.00,weatherlink.com 1.10,2013-01-11 15:22:00,
2013-01-11 07:37:00,35.9,31.0,30.24,South,188,0.0,0.0,82,0.00,,,0.00,weatherlink.com 1.10,2013-01-11 15:37:00,
2013-01-11 07:52:00,35.8,31.0,30.24,South,190,0.0,0.0,84,0.00,,,0.00,weatherlink.com 1.10,2013-01-11 15:52:00,
2013-01-11 08:07:00,36.7,32.0,30.24,South,189,0.0,0.0,82,0.00,,,0.00,weatherlink.com 1.10,2013-01-11 16:07:00,
2013-01-11 08:22:00,37.8,32.0,30.25,South,188,0.0,0.0,81,0.00,,,0.00,weatherlink.com 1.10,2013-01-11 16:22:00,
2013-01-11 08:37:00,40.6,33.0,30.25,SW,231,0.0,0.0,75,0.00,,,0.00,weatherlink.com 1.10,2013-01-11 16:37:00,
2013-01-11 08:52:00,42.5,33.0,30.25,West,259,0.0,2.0,70,0.00,,,0.00,weatherlink.com 1.10,2013-01-11 16:52:00,
2013-01-11 09:07:00,43.2,33.0,30.25,West,259,0.0,1.0,68,0.00,,,0.00,weatherlink.com 1.10,2013-01-11 17:07:00,
2013-01-11 09:23:00,43.7,34.0,30.25,West,259,0.0,0.0,68,0.00,,,0.00,weatherlink.com 1.10,2013-01-11 17:23:00,
2013-01-11 09:38:00,44.3,35.0,30.25,West,259,0.0,0.0,69,0.00,,,0.00,weatherlink.com 1.10,2013-01-11 17:38:00,
2013-01-11 09:53:00,44.7,34.0,30.25,WSW,256,0.0,0.0,66,0.00,,,0.00,weatherlink.com 1.10,2013-01-11 17:53:00,
2013-01-11 10:08:00,45.3,34.0,30.25,ESE,107,0.0,1.0,66,0.00,,,0.00,weatherlink.com 1.10,2013-01-11 18:08:00,
2013-01-11 10:23:00,46.0,34.0,30.25,SSE,152,0.0,1.0,64,0.00,,,0.00,weatherlink.com 1.10,2013-01-11 18:23:00,
2013-01-11 10:38:00,46.8,35.0,30.25,SW,221,0.0,2.0,63,0.00,,,0.00,weatherlink.com 1.10,2013-01-11 18:38:00,
2013-01-11 10:53:00,47.1,35.0,30.24,SSE,159,0.0,1.0,62,0.00,,,0.00,weatherlink.com 1.10,2013-01-11 18:53:00,
2013-01-11 11:08:00,48.0,35.0,30.24,SW,221,0.0,2.0,60,0.00,,,0.00,weatherlink.com 1.10,2013-01-11 19:08:00,
2013-01-11 11:23:00,48.3,34.0,30.22,West,267,0.0,2.0,59,0.00,,,0.00,weatherlink.com 1.10,2013-01-11 19:23:00,
2013-01-11 11:38:00,48.1,35.0,30.22,ESE,108,0.0,2.0,61,0.00,,,0.00,weatherlink.com 1.10,2013-01-11 19:38:00,
2013-01-11 11:53:00,49.1,35.0,30.20,WNW,297,0.0,2.0,58,0.00,,,0.00,weatherlink.com 1.10,2013-01-11 19:53:00,
2013-01-11 12:08:00,49.5,36.0,30.20,SW,219,0.0,2.0,59,0.00,,,0.00,weatherlink.com 1.10,2013-01-11 20:08:00,
2013-01-11 12:23:00,50.2,38.0,30.19,South,186,0.0,4.0,63,0.00,,,0.00,weatherlink.com 1.10,2013-01-11 20:23:00,
2013-01-11 12:38:00,50.7,37.0,30.18,WNW,293,1.0,5.0,59,0.00,,,0.00,weatherlink.com 1.10,2013-01-11 20:38:00,
2013-01-11 12:53:00,51.0,37.0,30.17,South,173,1.0,4.0,60,0.00,,,0.00,weatherlink.com 1.10,2013-01-11 20:53:00,
2013-01-11 13:08:00,51.5,36.0,30.17,SSW,212,0.0,3.0,56,0.00,,,0.00,weatherlink.com 1.10,2013-01-11 21:08:00,
2013-01-11 13:23:00,51.9,37.0,30.16,SSW,203,0.0,2.0,58,0.00,,,0.00,weatherlink.com 1.10,2013-01-11 21:23:00,
2013-01-11 13:38:00,52.8,37.0,30.16,WSW,246,0.0,4.0,55,0.00,,,0.00,weatherlink.com 1.10,2013-01-11 21:38:00,
2013-01-11 13:53:00,52.4,37.0,30.15,SW,231,0.0,4.0,57,0.00,,,0.00,weatherlink.com 1.10,2013-01-11 21:53:00,
2013-01-11 14:08:00,52.9,38.0,30.15,SSE,165,0.0,4.0,58,0.00,,,0.00,weatherlink.com 1.10,2013-01-11 22:08:00,
2013-01-11 14:23:00,53.6,39.0,30.15,WNW,284,2.0,4.0,59,0.00,,,0.00,weatherlink.com 1.10,2013-01-11 22:23:00,
2013-01-11 14:38:00,53.0,40.0,30.14,South,172,2.0,5.0,61,0.00,,,0.00,weatherlink.com 1.10,2013-01-11 22:38:00,
2013-01-11 14:53:00,52.5,40.0,30.14,ENE,75,1.0,4.0,63,0.00,,,0.00,weatherlink.com 1.10,2013-01-11 22:53:00,
2013-01-11 15:08:00,51.2,41.0,30.14,East,81,0.0,2.0,68,0.00,,,0.00,weatherlink.com 1.10,2013-01-11 23:08:00,
2013-01-11 15:23:00,51.8,42.0,30.13,WNW,283,2.0,8.0,69,0.00,,,0.00,weatherlink.com 1.10,2013-01-11 23:23:00,
2013-01-11 15:38:00,52.3,42.0,30.13,SSE,150,2.0,9.0,69,0.00,,,0.00,weatherlink.com 1.10,2013-01-11 23:38:00,
2013-01-11 15:53:00,52.1,42.0,30.13,West,269,5.0,6.0,69,0.00,,,0.00,weatherlink.com 1.10,2013-01-11 23:53:00,
2013-01-11 16:08:00,51.6,42.0,30.13,North,8,4.0,6.0,71,0.00,,,0.00,weatherlink.com 1.10,2013-01-12 00:08:00,
2013-01-11 16:23:00,50.2,42.0,30.13,WSW,255,0.0,5.0,73,0.00,,,0.00,weatherlink.com 1.10,2013-01-12 00:23:00,
2013-01-11 16:39:00,49.6,42.0,30.12,SSE,148,0.0,2.0,74,0.00,,,0.00,weatherlink.com 1.10,2013-01-12 00:39:00,
2013-01-11 16:54:00,49.0,41.0,30.12,West,267,0.0,3.0,75,0.00,,,0.00,weatherlink.com 1.10,2013-01-12 00:54:00,
2013-01-11 17:09:00,48.4,41.0,30.12,SW,236,1.0,4.0,76,0.00,,,0.00,weatherlink.com 1.10,2013-01-12 01:09:00,
2013-01-11 17:24:00,47.8,41.0,30.12,SSW,203,0.0,4.0,78,0.00,,,0.00,weatherlink.com 1.10,2013-01-12 01:24:00,
2013-01-11 17:39:00,47.2,41.0,30.12,NW,321,0.0,1.0,79,0.00,,,0.00,weatherlink.com 1.10,2013-01-12 01:39:00,
2013-01-11 17:54:00,46.7,41.0,30.12,NNE,25,0.0,4.0,81,0.00,,,0.00,weatherlink.com 1.10,2013-01-12 01:54:00,
2013-01-11 18:09:00,46.2,40.0,30.12,WSW,248,0.0,2.0,80,0.00,,,0.00,weatherlink.com 1.10,2013-01-12 02:09:00,
2013-01-11 18:24:00,45.9,40.0,30.12,WNW,302,0.0,2.0,80,0.00,,,0.00,weatherlink.com 1.10,2013-01-12 02:24:00,
2013-01-11 18:39:00,45.3,40.0,30.13,SW,232,0.0,1.0,81,0.00,,,0.00,weatherlink.com 1.10,2013-01-12 02:39:00,
2013-01-11 18:54:00,44.8,40.0,30.13,NNW,331,3.0,3.0,83,0.00,,,0.00,weatherlink.com 1.10,2013-01-12 02:54:00,
2013-01-11 19:09:00,45.1,40.0,30.13,SW,219,0.0,2.0,83,0.00,,,0.00,weatherlink.com 1.10,2013-01-12 03:09:00,
2013-01-11 19:24:00,44.8,40.0,30.12,SE,137,0.0,1.0,84,0.00,,,0.00,weatherlink.com 1.10,2013-01-12 03:24:00,
2013-01-11 19:39:00,44.3,40.0,30.12,SW,215,0.0,1.0,85,0.00,,,0.00,weatherlink.com 1.10,2013-01-12 03:39:00,
2013-01-11 19:54:00,43.8,40.0,30.12,WSW,253,0.0,1.0,86,0.00,,,0.00,weatherlink.com 1.10,2013-01-12 03:54:00,
2013-01-11 20:09:00,43.9,40.0,30.12,West,270,0.0,2.0,87,0.00,,,0.00,weatherlink.com 1.10,2013-01-12 04:09:00,
2013-01-11 20:24:00,43.5,40.0,30.13,West,271,0.0,0.0,87,0.00,,,0.00,weatherlink.com 1.10,2013-01-12 04:24:00,
2013-01-11 20:39:00,42.4,39.0,30.14,West,271,0.0,0.0,88,0.00,,,0.00,weatherlink.com 1.10,2013-01-12 04:39:00,
2013-01-11 20:54:00,42.6,39.0,30.14,East,83,0.0,1.0,88,0.00,,,0.00,weatherlink.com 1.10,2013-01-12 04:54:00,
2013-01-11 21:09:00,41.7,39.0,30.14,East,84,0.0,0.0,89,0.00,,,0.00,weatherlink.com 1.10,2013-01-12 05:09:00,
2013-01-11 21:24:00,41.1,38.0,30.14,East,84,0.0,0.0,90,0.00,,,0.00,weatherlink.com 1.10,2013-01-12 05:24:00,
2013-01-11 21:39:00,40.1,38.0,30.15,East,84,0.0,0.0,90,0.00,,,0.00,weatherlink.com 1.10,2013-01-12 05:39:00,
2013-01-11 21:54:00,40.0,38.0,30.15,East,84,0.0,0.0,92,0.00,,,0.00,weatherlink.com 1.10,2013-01-12 05:54:00,
2013-01-11 22:09:00,39.3,37.0,30.15,East,84,0.0,0.0,92,0.00,,,0.00,weatherlink.com 1.10,2013-01-12 06:09:00,
2013-01-11 22:24:00,38.6,37.0,30.15,East,84,0.0,0.0,92,0.00,,,0.00,weatherlink.com 1.10,2013-01-12 06:24:00,
2013-01-11 22:39:00,38.3,37.0,30.16,East,83,0.0,0.0,94,0.00,,,0.00,weatherlink.com 1.10,2013-01-12 06:39:00,
2013-01-11 22:54:00,38.0,37.0,30.16,East,84,0.0,0.0,94,0.00,,,0.00,weatherlink.com 1.10,2013-01-12 06:54:00,
2013-01-11 23:09:00,37.5,36.0,30.16,East,84,0.0,0.0,95,0.00,,,0.00,weatherlink.com 1.10,2013-01-12 07:09:00,
2013-01-11 23:24:00,37.5,36.0,30.16,East,84,0.0,0.0,95,0.00,,,0.00,weatherlink.com 1.10,2013-01-12 07:24:00,
2013-01-11 23:39:00,37.3,36.0,30.17,East,84,0.0,0.0,95,0.00,,,0.00,weatherlink.com 1.10,2013-01-12 07:39:00,
2013-01-11 23:54:00,36.8,36.0,30.16,East,84,0.0,0.0,95,0.00,,,0.00,weatherlink.com 1.10,2013-01-12 07:54:00,